International Skating Union - Official Site

Essent ISU World Cup Hamar
February 11-12, 2012

Draw | Lap Times | Index | World Cup

Referee: Knut Arthur  OLSEN  (NOR)
Starter: Åke  FALK  (SWE)
StartTime: EndTime: Air Temp: Ice Temp: Humidity:
12:30 13:22 12℃ -8.1℃ 18%
Result 3000m Ladies Division A
Rankings as of Feb 12 2012 1:48PM
Rank: No.: Name: Nation: Time: Behind: Points:
1 12 Martina  SÁBLIKOVÁ CZE CZE 4:05.88200m - 20.33 - (20.3)
600m - 51.66 - (31.3)
1000m - 1:23.57 - (31.9)
1400m - 1:55.86 - (32.2)
1800m - 2:28.51 - (32.6)
2200m - 3:01.16 - (32.6)
2600m - 3:33.52 - (32.3)
3000m - 4:05.88 - (32.3)
100
2 14 Stephanie  BECKERT GER GER 4:06.42200m - 20.97 - (20.9)
600m - 52.99 - (32.0)
1000m - 1:25.21 - (32.2)
1400m - 1:57.37 - (32.1)
1800m - 2:29.40 - (32.0)
2200m - 3:01.83 - (32.4)
2600m - 3:34.30 - (32.4)
3000m - 4:06.42 - (32.1)
0.54 80
3 38 Ireen  WÜST NED NED 4:06.57200m - 19.92 - (19.9)
600m - 51.02 - (31.0)
1000m - 1:23.09 - (32.0)
1400m - 1:55.52 - (32.4)
1800m - 2:28.22 - (32.6)
2200m - 3:00.60 - (32.3)
2600m - 3:33.58 - (32.9)
3000m - 4:06.57 - (32.9)
0.69 70
4 34 Diane  VALKENBURG NED NED 4:09.06200m - 20.48 - (20.4)
600m - 52.08 - (31.6)
1000m - 1:24.25 - (32.1)
1400m - 1:56.65 - (32.4)
1800m - 2:29.22 - (32.5)
2200m - 3:01.91 - (32.6)
2600m - 3:35.09 - (33.1)
3000m - 4:09.06 - (33.9)
3.18 60
5 7 Cindy  KLASSEN CAN CAN 4:10.08200m - 20.27 - (20.2)
600m - 52.00 - (31.7)
1000m - 1:24.94 - (32.9)
1400m - 1:57.56 - (32.6)
1800m - 2:29.82 - (32.2)
2200m - 3:02.41 - (32.6)
2600m - 3:35.65 - (33.2)
3000m - 4:10.08 - (34.4)
4.20 50
6 22 Masako  HOZUMI JPN JPN 4:11.41200m - 20.78 - (20.7)
600m - 52.03 - (31.2)
1000m - 1:23.78 - (31.7)
1400m - 1:56.06 - (32.2)
1800m - 2:28.87 - (32.8)
2200m - 3:02.08 - (33.2)
2600m - 3:36.17 - (34.0)
3000m - 4:11.41 - (35.2)
5.53 45
7 35 Annouk  van der WEIJDEN NED NED 4:13.05200m - 20.04 - (20.0)
600m - 51.88 - (31.8)
1000m - 1:24.77 - (32.8)
1400m - 1:57.70 - (32.9)
1800m - 2:31.22 - (33.5)
2200m - 3:05.01 - (33.7)
2600m - 3:38.89 - (33.8)
3000m - 4:13.05 - (34.1)
7.17 40
8 37 Jorien  VOORHUIS NED NED 4:13.56200m - 20.34 - (20.3)
600m - 52.46 - (32.1)
1000m - 1:25.36 - (32.9)
1400m - 1:58.60 - (33.2)
1800m - 2:32.07 - (33.4)
2200m - 3:05.54 - (33.4)
2600m - 3:39.32 - (33.7)
3000m - 4:13.56 - (34.2)
7.68 36
9 23 Eriko  ISHINO JPN JPN 4:13.62200m - 20.80 - (20.8)
600m - 52.92 - (32.1)
1000m - 1:25.48 - (32.5)
1400m - 1:58.41 - (32.9)
1800m - 2:31.64 - (33.2)
2200m - 3:05.22 - (33.5)
2600m - 3:39.20 - (33.9)
3000m - 4:13.62 - (34.4)
7.74 32
10 8 Christine  NESBITT CAN CAN 4:14.20200m - 20.13 - (20.1)
600m - 51.66 - (31.5)
1000m - 1:24.14 - (32.4)
1400m - 1:57.06 - (32.9)
1800m - 2:30.57 - (33.5)
2200m - 3:04.56 - (33.9)
2600m - 3:39.00 - (34.4)
3000m - 4:14.20 - (35.1)
8.32 28
11 47 Olga  GRAF RUS RUS 4:14.52200m - 21.41 - (21.4)
600m - 53.47 - (32.0)
1000m - 1:26.08 - (32.6)
1400m - 1:59.41 - (33.3)
1800m - 2:32.86 - (33.4)
2200m - 3:06.34 - (33.4)
2600m - 3:40.09 - (33.7)
3000m - 4:14.52 - (34.4)
8.64 24
12 46 Yevgenia  DMITRIEVA RUS RUS 4:14.56200m - 20.93 - (20.9)
600m - 52.77 - (31.8)
1000m - 1:24.74 - (31.9)
1400m - 1:57.64 - (32.9)
1800m - 2:31.28 - (33.6)
2200m - 3:05.16 - (33.8)
2600m - 3:39.46 - (34.3)
3000m - 4:14.56 - (35.0)
8.68 21
13 9 Brittany  SCHUSSLER CAN CAN 4:14.77200m - 21.09 - (21.1)
600m - 53.09 - (31.9)
1000m - 1:26.47 - (33.3)
1400m - 1:59.60 - (33.1)
1800m - 2:32.88 - (33.2)
2200m - 3:06.19 - (33.3)
2600m - 3:40.20 - (34.0)
3000m - 4:14.77 - (34.5)
8.89 18
14 41 Ida  NJÅTUN NOR NOR 4:15.01200m - 20.46 - (20.4)
600m - 53.03 - (32.5)
1000m - 1:25.36 - (32.3)
1400m - 1:58.51 - (33.1)
1800m - 2:31.62 - (33.1)
2200m - 3:05.47 - (33.8)
2600m - 3:39.97 - (34.5)
3000m - 4:15.01 - (35.0)
9.13 16
15 25 Ayaka  KIKUCHI JPN JPN 4:15.51200m - 20.54 - (20.5)
600m - 52.87 - (32.3)
1000m - 1:25.75 - (32.8)
1400m - 1:58.79 - (33.0)
1800m - 2:32.40 - (33.6)
2200m - 3:06.40 - (34.0)
2600m - 3:40.94 - (34.5)
3000m - 4:15.51 - (34.5)
9.63 14
16 27 Bo-Reum  KIM KOR KOR 4:15.66200m - 20.67 - (20.6)
600m - 52.80 - (32.1)
1000m - 1:25.56 - (32.7)
1400m - 1:58.72 - (33.1)
1800m - 2:33.07 - (34.3)
2200m - 3:07.70 - (34.6)
2600m - 3:42.21 - (34.5)
3000m - 4:15.66 - (33.4)
9.78 12
17 55 Jilleanne  ROOKARD USA USA 4:15.84200m - 20.78 - (20.7)
600m - 52.59 - (31.8)
1000m - 1:25.07 - (32.4)
1400m - 1:58.49 - (33.4)
1800m - 2:32.84 - (34.3)
2200m - 3:06.76 - (33.9)
2600m - 3:40.90 - (34.1)
3000m - 4:15.84 - (34.9)
9.96 10
18 24 Shiho  ISHIZAWA JPN JPN 4:17.34200m - 20.40 - (20.4)
600m - 52.23 - (31.8)
1000m - 1:25.19 - (32.9)
1400m - 1:59.03 - (33.8)
1800m - 2:33.26 - (34.2)
2200m - 3:08.05 - (34.7)
2600m - 3:42.84 - (34.7)
3000m - 4:17.34 - (34.5)
11.46 8
19 18 Isabell  OST GER GER 4:17.57200m - 20.65 - (20.6)
600m - 52.93 - (32.2)
1000m - 1:26.19 - (33.2)
1400m - 1:59.60 - (33.4)
1800m - 2:33.19 - (33.5)
2200m - 3:07.33 - (34.1)
2600m - 3:42.27 - (34.9)
3000m - 4:17.57 - (35.2)
11.69 6
20 6 Nicole  GARRIDO CAN CAN 4:22.20200m - 20.86 - (20.8)
600m - 53.55 - (32.7)
1000m - 1:27.16 - (33.6)
1400m - 2:01.36 - (34.1)
1800m - 2:35.70 - (34.3)
2200m - 3:10.68 - (34.9)
2600m - 3:46.22 - (35.5)
3000m - 4:22.20 - (35.9)
16.32 5